Weather History for Pensacola NAS, FL

Change the Weather History Date:

Tuesday, October 30, 2012

  Actual Average Record
Temperature  
Mean Temperature 54 °F -  
Max Temperature 66 °F 74 °F 84 °F (2000)
Min Temperature 42 °F 55 °F 39 °F (2008)
Degree Days  
Heating Degree Days 11    
Growing Degree Days 4 (Base 50)    
Moisture  
Dew Point 35 °F    
Average Humidity 53    
Maximum Humidity 70    
Minimum Humidity 29    
Precipitation  
Precipitation 0.00 in - - ()
Sea Level Pressure  
Sea Level Pressure 30.01 in    
Wind  
Wind Speed 7 mph (NW)    
Max Wind Speed 14 mph    
Max Gust Speed 23 mph    
Visibility 10 miles    
Events      
Averages and records for this station are not official NWS values.
T = Trace of Precipitation, MM = Missing Value Source: NWS Daily Summary

Daily Weather History Graph

Daily Weather History Graph

Search for Another Location

Airport:

Trip Planner

Search our weather history database for the weather conditions in past years. The results will help you decide how hot, cold, wet, or windy it might be!

Date:

Astronomy

Oct. 30, 2012 Rise Set
Actual Time 7:02 AM CDT 6:02 PM CDT
Civil Twilight 6:37 AM CDT 6:27 PM CDT
Nautical Twilight 6:09 AM CDT 6:55 PM CDT
Astronomical Twilight 5:41 AM CDT 7:24 PM CDT
Moon 6:38 PM CDT 7:43 AM CDT
Length of Visible Light 11h 49m
Length of Day
11h 00m
Full, 99% of the Moon is Illuminated
Oct 30
Full
Nov 6
Last Quarter
Nov 13
New
Nov 20
First Quarter
Nov 28
Full

Hourly Weather History & Observations

Time (CDT) Temp. Windchill Dew Point Humidity Pressure Visibility Wind Dir Wind Speed Gust Speed Precip Events Conditions
12:56 AM 46.0 °F 43.1 °F 34.0 °F 63% 30.03 in 10.0 mi NW 5.8 mph - N/A   Clear
1:56 AM 46.0 °F 42.5 °F 34.0 °F 63% 30.02 in 10.0 mi NW 6.9 mph - N/A   Clear
2:56 AM 45.0 °F 40.1 °F 34.0 °F 65% 30.02 in 10.0 mi NNW 9.2 mph - N/A   Clear
3:56 AM 44.1 °F 39.5 °F 34.0 °F 68% 30.01 in 10.0 mi NW 8.1 mph - N/A   Clear
4:56 AM 44.1 °F 39.5 °F 33.1 °F 65% 30.02 in 10.0 mi NW 8.1 mph - N/A   Clear
5:56 AM 43.0 °F 38.2 °F 33.1 °F 68% 30.03 in 10.0 mi NW 8.1 mph - N/A   Clear
6:56 AM 42.1 °F 38.4 °F 33.1 °F 70% 30.04 in 10.0 mi NW 5.8 mph - N/A   Clear
7:56 AM 45.0 °F 41.2 °F 32.0 °F 60% 30.05 in 10.0 mi NW 6.9 mph - N/A   Clear
8:56 AM 50.0 °F - 33.1 °F 52% 30.05 in 10.0 mi NNW 8.1 mph - N/A   Partly Cloudy
9:56 AM 54.0 °F - 30.9 °F 41% 30.04 in 10.0 mi NNW 11.5 mph 20.7 mph N/A   Partly Cloudy
10:56 AM 57.0 °F - 30.9 °F 37% 30.04 in 10.0 mi NNW 11.5 mph 23.0 mph N/A   Partly Cloudy
11:56 AM 61.0 °F - 30.0 °F 31% 30.02 in 10.0 mi NNW 13.8 mph 23.0 mph N/A   Partly Cloudy
12:56 PM 63.0 °F - 33.1 °F 33% 30.00 in 10.0 mi WNW 9.2 mph 17.3 mph N/A   Partly Cloudy
1:56 PM 64.9 °F - 33.1 °F 31% 29.98 in 10.0 mi NW 9.2 mph 20.7 mph N/A   Partly Cloudy
2:56 PM 64.9 °F - 34.0 °F 32% 29.96 in 10.0 mi WNW 8.1 mph 19.6 mph N/A   Partly Cloudy
3:56 PM 66.0 °F - 33.1 °F 29% 29.94 in 10.0 mi NW 9.2 mph 20.7 mph N/A   Partly Cloudy
4:56 PM 64.0 °F - 36.0 °F 35% 29.94 in 10.0 mi West 5.8 mph - N/A   Partly Cloudy
5:56 PM 57.9 °F - 43.0 °F 58% 29.95 in 10.0 mi WSW 4.6 mph - N/A   Partly Cloudy
6:56 PM 55.9 °F - 43.0 °F 62% 29.97 in 10.0 mi West 4.6 mph - N/A   Partly Cloudy
7:56 PM 53.1 °F - 42.1 °F 66% 29.98 in 10.0 mi WSW 3.5 mph - N/A   Scattered Clouds
8:56 PM 52.0 °F - 41.0 °F 66% 30.00 in 10.0 mi Calm Calm - N/A   Mostly Cloudy
9:56 PM 55.0 °F - 39.9 °F 57% 30.02 in 10.0 mi West 4.6 mph - N/A   Scattered Clouds
10:56 PM 53.1 °F - 39.9 °F 61% 30.02 in 10.0 mi West 3.5 mph - N/A   Scattered Clouds
11:56 PM 54.0 °F - 39.9 °F 59% 30.02 in 10.0 mi Calm Calm - N/A   Clear